Location: Bennemühlen
(52.5740°N, 9.7135°E)
Time: 17:03:52
(UTC+00:00)

Tiros 1 despin weight - Pass Details

Date: 22 February 2026
Orbit: 556 x 593 km, 48.2° (Epoch: 11 March)

Event Time Altitude Azimuth Distance (km) Brightness Sun altitude
Rises 12:18:22 0° 203° (SSW) 2,746 ? 26.6°
Reaches altitude 10° 12:21:27 10° 180° (S) 1,846 ? 26.5°
Maximum altitude 12:23:50 15° 145° (SE) 1,556 ? 26.5°
Drops below altitude 10° 12:26:12 10° 110° (ESE) 1,843 ? 26.4°
Sets 12:29:16 0° 87° (E) 2,738 ? 26.3°
